Location: Unspecified
(0.0000°N, 0.0000°E)
Time: 23:37:02
(UTC+00:00)

GONETS D1M 1 - Pass Details

Date: 21 May 2026
Orbit: 1435 x 1447 km, 82.5° (Epoch: 7 June)

Event Time Altitude Azimuth Distance (km) Brightness Sun altitude
Rises 03:56:28 0° 143° (SE) 4,537 9.4 -28.0°
Reaches altitude 10° 04:01:42 10° 116° (ESE) 3,558 9.2 -26.8°
Maximum altitude 04:04:56 13° 93° (E) 3,355 9.4 -26.1°
Drops below altitude 10° 04:08:10 10° 70° (ENE) 3,556 9.8 -25.3°
Sets 04:13:19 0° 44° (NE) 4,532 10.4 -24.1°
